TimePST,TemperatureF,Dew PointF,Humidity,Sea Level PressureIn,VisibilityMPH,Wind Direction,Wind SpeedMPH,Gust SpeedMPH,PrecipitationIn,Events,Conditions,WindDirDegrees,DateUTC
12:55 AM,28.0,21.9,78,30.01,10.0,North,4.6,-,N/A,,Clear,360,2013-11-28 08:55:00
1:55 AM,26.1,21.0,81,30.03,10.0,Calm,Calm,-,N/A,,Clear,0,2013-11-28 09:55:00
2:55 AM,26.1,21.0,81,30.03,10.0,NNW,3.5,-,N/A,,Clear,330,2013-11-28 10:55:00
3:55 AM,25.0,21.0,85,30.04,10.0,NNW,3.5,-,N/A,,Clear,340,2013-11-28 11:55:00
4:55 AM,21.9,19.0,89,30.07,8.0,Calm,Calm,-,N/A,,Clear,0,2013-11-28 12:55:00
5:55 AM,19.0,17.1,92,30.09,10.0,Calm,Calm,-,N/A,,Clear,0,2013-11-28 13:55:00
6:55 AM,21.0,19.0,92,30.12,10.0,Calm,Calm,-,N/A,,Clear,0,2013-11-28 14:55:00
7:55 AM,21.0,18.0,88,30.15,10.0,Calm,Calm,-,N/A,,Clear,0,2013-11-28 15:55:00
8:55 AM,30.9,25.0,79,30.13,10.0,Calm,Calm,-,N/A,,Clear,0,2013-11-28 16:55:00
9:55 AM,39.0,25.0,57,30.12,10.0,Calm,Calm,-,N/A,,Clear,0,2013-11-28 17:55:00
10:55 AM,45.0,25.0,46,30.12,10.0,Calm,Calm,-,N/A,,Clear,0,2013-11-28 18:55:00
11:55 AM,50.0,25.0,38,30.08,10.0,Calm,Calm,-,N/A,,Clear,0,2013-11-28 19:55:00
12:55 PM,53.1,26.1,35,30.05,10.0,Variable,3.5,-,N/A,,Clear,0,2013-11-28 20:55:00
1:55 PM,54.0,24.1,31,30.04,10.0,Variable,3.5,-,N/A,,Clear,0,2013-11-28 21:55:00
2:55 PM,52.0,25.0,35,30.06,10.0,East,4.6,-,N/A,,Clear,80,2013-11-28 22:55:00
3:55 PM,48.0,27.0,44,30.08,10.0,ENE,5.8,-,N/A,,Clear,70,2013-11-28 23:55:00
4:55 PM,42.1,26.1,53,30.12,10.0,NE,5.8,-,N/A,,Clear,50,2013-11-29 00:55:00
5:55 PM,34.0,24.1,67,30.16,10.0,SSE,3.5,-,N/A,,Clear,160,2013-11-29 01:55:00
6:55 PM,32.0,23.0,69,30.19,10.0,NNE,4.6,-,N/A,,Clear,30,2013-11-29 02:55:00
7:55 PM,28.0,21.9,78,30.23,10.0,Calm,Calm,-,N/A,,Clear,0,2013-11-29 03:55:00
8:55 PM,27.0,21.9,81,30.22,8.0,NNE,3.5,-,N/A,,Clear,20,2013-11-29 04:55:00
9:55 PM,25.0,19.9,81,30.22,10.0,South,3.5,-,N/A,,Clear,190,2013-11-29 05:55:00
10:55 PM,23.0,19.0,85,30.22,10.0,Calm,Calm,-,N/A,,Clear,0,2013-11-29 06:55:00
11:55 PM,21.0,18.0,88,30.22,10.0,Calm,Calm,-,N/A,,Clear,0,2013-11-29 07:55:00